This is the latest recevied weather packets stored in our database for station/object KJ4YLO. If no packets are shown the sender has not sent any weather packets the latest 10 day(s).
| Time | Temp. | Humidity | Pressure | Rain* | Wind** | Luminosity | Snow |
|---|---|---|---|---|---|---|---|
| 1778133806 | 17.78° C | 99% | 1013.8 hPa | 16.76 mm | - | 0 W/m² | - |
| 1778133503 | 17.78° C | 99% | 1014.1 hPa | 82.3 mm | - | 0 W/m² | - |
| 1778133198 | 17.78° C | 99% | 1014.5 hPa | 76.2 mm | - | 0 W/m² | - |
| 1778132895 | 17.78° C | 99% | 1015.1 hPa | 4.83 mm | - | 0 W/m² | - |
| 1778132591 | 17.78° C | 99% | 1015.1 hPa | 1.78 mm | - | 0 W/m² | - |
| 1778132289 | 17.78° C | 99% | 1013.8 hPa | 0 mm | - | 0 W/m² | - |
| 1778131986 | 17.78° C | 99% | 1013.5 hPa | 1.27 mm | - | 0 W/m² | - |
| 1778131686 | 17.78° C | 99% | 1013.5 hPa | 0 mm | - | 0 W/m² | - |
| 1778131381 | 17.78° C | 99% | 1014.5 hPa | 0 mm | - | 0 W/m² | - |
| 1778131080 | 17.78° C | 99% | 1014.5 hPa | 0 mm | - | 0 W/m² | - |
| 1778130776 | 17.78° C | 99% | 1015.1 hPa | 0 mm | - | 0 W/m² | - |
| 1778130473 | 17.78° C | 99% | 1014.8 hPa | 7.87 mm | - | 0 W/m² | - |
| 1778130169 | 17.78° C | 99% | 1014.8 hPa | 18.54 mm | - | 0 W/m² | - |
| 1778129866 | 17.78° C | 99% | 1014.8 hPa | 10.92 mm | - | 0 W/m² | - |
| 1778129562 | 17.78° C | 99% | 1016.3 hPa | 11.94 mm | - | 0 W/m² | - |
| 1778129260 | 17.78° C | 99% | 1015.5 hPa | 8.89 mm | - | 0 W/m² | - |
| 1778128956 | 17.78° C | 99% | 1014.8 hPa | 1.27 mm | - | 0 W/m² | - |
| 1778128652 | 17.78° C | 99% | 1014.8 hPa | 1.78 mm | - | 0 W/m² | - |
| 1778128349 | 17.78° C | 99% | 1014.5 hPa | 4.83 mm | - | 0 W/m² | - |
| 1778128046 | 17.78° C | 99% | 1014.5 hPa | 3.05 mm | - | 0 W/m² | - |
| 1778127741 | 17.78° C | 99% | 1014.5 hPa | 0 mm | - | 0 W/m² | - |
| 1778127438 | 17.78° C | 99% | 1014.5 hPa | 1.78 mm | - | 0 W/m² | - |
| 1778127135 | 17.78° C | 99% | 1014.8 hPa | 1.78 mm | - | 0 W/m² | - |
| 1778126833 | 17.78° C | 99% | 1014.5 hPa | 0 mm | - | 0 W/m² | - |
| 1778126528 | 17.78° C | 99% | 1014.5 hPa | 0 mm | - | 0 W/m² | - |
* Rain latest hour (hover to see other rain measurements)
** Current wind speed in m/s (hover to see current wind gust speed)